[[{"header":{"parameterUnit":"m.s-1","parameterCategory":1,"la1":30.2991,"la2":30.254,"lo1":-89.0895,"lo2":-89.0444,"dy":0.0017,"dx":0.0017,"nx":28,"ny":28,"refTime":"2025-05-23T21:00:00:Z","depth":0,"parameterNumber":2,"parameterNumberName":"U-component_of_WINDS"},"data":[0,0,0,0,0,0,0,0,0,0,0,0,0,0,0,0,0,0,0,0,0,0,0,0,0,0,0,0,0,0,0,0,0,0,0,0,0,0,0,0,0,0,0,0,0,0,0,0,0,0,0,0,0,0,0,0,0,0,-1.314,-1.314,0,-1.308,-1.3079,-1.3078,-1.3014,-1.3013,-1.3012,-1.3012,-1.2945,-1.2944,-1.2943,0,0,0,0,0,0,0,0,0,0,0,0,0,-1.3198,-1.3197,-1.314,-1.314,-1.3139,-1.308,-1.3079,-1.3078,-1.3014,-1.3013,-1.3012,-1.3011,-1.2945,-1.2944,-1.2943,0,0,0,0,0,0,0,0,0,0,0,0,0,-1.3159,-1.3197,-1.3141,-1.31,-1.3096,-1.308,-1.3079,-1.3078,-1.3015,-1.3013,-1.3012,-1.3011,-1.2946,-1.2944,-1.2943,-1.2961,0,0,-1.2939,-1.2938,0,0,0,0,0,0,0,0,-1.3161,-1.3157,-1.3107,-1.3103,-1.3098,-1.3053,-1.3075,-1.3038,-1.3015,-1.3045,-1.3012,-1.301,-1.2982,-1.2977,-1.2969,-1.2958,-1.2955,-1.2939,-1.2938,-1.2937,-1.2937,0,0,0,0,0,0,0,-1.3164,-1.3159,-1.3116,-1.3106,-1.3101,-1.3084,-1.3077,-1.3068,-1.3022,-1.3043,-1.3038,-1.3032,-1.2979,-1.297,-1.2967,-1.2954,-1.2939,-1.2937,-1.2937,-1.2936,-1.2954,-1.2955,0,0,0,0,0,0,-1.3173,-1.3162,-1.3118,-1.3114,-1.3127,-1.3084,-1.3076,-1.3069,-1.3022,-1.3013,-1.3033,-1.3029,-1.2973,-1.2969,-1.2964,-1.2981,-1.2937,-1.2936,-1.2935,-1.2953,-1.2954,-1.2956,0,0,0,0,0,0,-1.3175,-1.317,-1.3121,-1.3137,-1.3129,-1.3084,-1.3077,-1.3068,-1.3059,-1.3014,-1.3005,-1.3032,-1.2972,-1.2966,-1.2962,-1.2978,-1.2935,-1.2934,-1.2951,-1.2953,-1.2955,-1.3016,0,0,0,0,0,0,-1.3177,-1.3171,-1.3178,-1.3137,-1.3129,-1.3121,-1.3078,-1.3068,-1.3058,-1.3052,-1.3012,-1.3004,-1.2971,-1.2965,-1.2961,-1.2975,-1.2933,-1.2949,-1.2952,-1.2954,-1.3013,-1.302,-1.3027,0,0,0,0,0,-1.3179,-1.3197,-1.3178,-1.3174,-1.3137,-1.3122,-1.3117,-1.308,-1.3059,-1.3065,-1.3036,-1.3005,-1.2978,-1.2965,-1.296,-1.2974,-1.2948,-1.2951,-1.2954,-1.3009,-1.3019,-1.3026,0,0,0,0,0,0,-1.3238,-1.3191,-1.317,-1.3175,-1.3154,-1.3111,-1.3118,-1.3091,-1.3073,-1.3068,-1.3022,-1.3013,-1.3015,-1.2994,-1.2981,-1.2989,-1.2958,-1.296,-1.3002,-1.301,-1.3017,-1.3021,-1.2932,0,0,0,0,0,-1.3253,-1.3246,-1.3204,-1.3213,-1.3203,-1.3163,-1.3155,-1.3129,-1.3103,-1.3093,-1.3064,-1.304,-1.3026,-1.3017,-1.3001,-1.301,-1.2999,-1.3017,-1.3024,-1.303,-1.3032,-1.3034,-1.3042,-1.2965,-1.2965,-1.2965,0,0,-1.3281,-1.3254,-1.3252,-1.3224,-1.3204,-1.3197,-1.3155,-1.3149,-1.3143,-1.3092,-1.3087,-1.3065,-1.3034,-1.3037,-1.3036,-1.302,-1.3051,-1.3034,-1.3039,-1.3038,-1.3038,-1.3045,-1.3052,-1.2967,-1.2967,-1.2967,0,0,-1.3329,-1.3308,-1.3313,-1.3295,-1.3265,-1.3238,-1.324,-1.3202,-1.3186,-1.318,-1.3142,-1.3133,-1.311,-1.309,-1.3077,-1.3119,-1.3089,-1.3115,-1.3151,-1.3154,-1.316,-1.3165,-1.3179,-1.3185,-1.3118,-1.3118,-1.3118,0,-1.3367,-1.3356,-1.3319,-1.3316,-1.3304,-1.3259,-1.3263,-1.3247,-1.3213,-1.3206,-1.3188,-1.3159,-1.3135,-1.3132,-1.3143,-1.3134,-1.3133,-1.3119,-1.3162,-1.3167,-1.3171,-1.3184,-1.3189,-1.3121,-1.3121,-1.312,-1.312,0,-1.3405,-1.3398,-1.3405,-1.3376,-1.3365,-1.3366,-1.3328,-1.3321,-1.3296,-1.3271,-1.3266,-1.3237,-1.3214,-1.3212,-1.3187,-1.3205,-1.3196,-1.3171,-1.3139,-1.3182,-1.3193,-1.3198,-1.3126,-1.3125,-1.3124,-1.3123,0,0,-1.3487,-1.3438,-1.3441,-1.3427,-1.3392,-1.3385,-1.3384,-1.3364,-1.3359,-1.3338,-1.3335,-1.3317,-1.3294,-1.3279,-1.3252,-1.3254,-1.3289,-1.3229,-1.3228,-1.324,-1.3306,-1.3324,-1.333,-1.3269,-1.327,-1.3271,-1.3308,0,-1.3527,-1.3523,-1.349,-1.3495,-1.3487,-1.3445,-1.3444,-1.3422,-1.3399,-1.3388,-1.3362,-1.335,-1.3321,-1.3312,-1.3313,-1.3284,-1.3301,-1.3281,-1.3264,-1.3264,-1.3272,-1.3336,-1.3355,-1.3392,-1.3313,-1.3313,-1.3314,0,-1.3574,-1.3557,-1.3562,-1.3527,-1.3523,-1.3523,-1.3501,-1.3493,-1.3467,-1.3449,-1.3434,-1.3404,-1.3398,-1.337,-1.3362,-1.3349,-1.3341,-1.3326,-1.3326,-1.3322,-1.3291,-1.3332,-1.3403,-1.3408,-1.332,-1.332,-1.3319,0,-1.3632,-1.3611,-1.3611,-1.36,-1.356,-1.3561,-1.3544,-1.3517,-1.3507,-1.3488,-1.3481,-1.3462,-1.3451,-1.3436,-1.3401,-1.3384,-1.3397,-1.3365,-1.3381,-1.3382,-1.3384,-1.3384,-1.3453,-1.3381,-1.3381,-1.3381,-1.3381,0,-1.368,-1.3684,-1.3636,-1.3636,-1.3639,-1.3601,-1.3605,-1.3584,-1.3561,-1.3555,-1.3517,-1.3512,-1.3467,-1.3456,-1.3429,-1.3426,-1.3421,-1.3406,-1.3399,-1.3409,-1.3411,-1.3401,-1.3397,-1.3383,-1.3382,-1.3382,-1.3382,0,-1.3745,-1.3713,-1.371,-1.3673,-1.3664,-1.3668,-1.3636,-1.3633,-1.3609,-1.3602,-1.3598,-1.3559,-1.3545,-1.3509,-1.3485,-1.3466,-1.347,-1.3457,-1.348,-1.3474,-1.3492,-1.349,-1.3555,-1.3561,-1.3488,-1.3489,-1.3489,0,-1.3777,-1.378,-1.3744,-1.3738,-1.3723,-1.3714,-1.3704,-1.3666,-1.3658,-1.3629,-1.363,-1.3613,-1.3598,-1.3577,-1.3545,-1.3527,-1.3512,-1.3536,-1.3509,-1.3519,-1.3511,-1.3511,-1.351,-1.3542,-1.3543,-1.3544,-1.3544,0,-1.3837,-1.3822,-1.381,-1.3793,-1.3782,-1.3767,-1.3748,-1.3746,-1.3703,-1.3695,-1.3681,-1.367,-1.3646,-1.363,-1.3607,-1.3588,-1.3559,-1.3554,-1.3556,-1.3566,-1.3578,-1.3571,-1.3494,-1.3552,-1.3551,-1.355,-1.355,-1.355,-1.3886,-1.3886,-1.3861,-1.3849,-1.3832,-1.3816,-1.3812,-1.3788,-1.3776,-1.3755,-1.3733,-1.3721,-1.3695,-1.3662,-1.3645,-1.3634,-1.3619,-1.3623,-1.3624,-1.3625,-1.3629,-1.3582,-1.363,-1.363,-1.363,-1.3629,-1.3629,0,-1.3943,-1.3925,-1.3915,-1.3891,-1.3882,-1.3858,-1.3836,-1.383,-1.382,-1.3799,-1.3785,-1.3769,-1.3753,-1.3721,-1.3702,-1.37,-1.3686,-1.3696,-1.3695,-1.3691,-1.3644,-1.3644,-1.3708,-1.3707,-1.3707,-1.3707,-1.3707,-1.3707,-1.3972,-1.3971,-1.3952,-1.3942,-1.3924,-1.3913,-1.3903,-1.3888,-1.3871,-1.3855,-1.3842,-1.3822,-1.3796,-1.3775,-1.376,-1.375,-1.3744,-1.3759,-1.3745,-1.3702,-1.3694,-1.3687,-1.3686,-1.3758,-1.3758,-1.3792,-1.3793,-1.3793]},{"header":{"parameterUnit":"m.s-1","parameterCategory":1,"la1":30.2991,"la2":30.254,"lo1":-89.0895,"lo2":-89.0444,"dy":0.0017,"dx":0.0017,"nx":28,"ny":28,"refTime":"2025-05-23T21:00:00:Z","depth":0,"parameterNumber":3,"parameterNumberName":"V-component_of_WINDS"},"data":[0,0,0,0,0,0,0,0,0,0,0,0,0,0,0,0,0,0,0,0,0,0,0,0,0,0,0,0,0,0,0,0,0,0,0,0,0,0,0,0,0,0,0,0,0,0,0,0,0,0,0,0,0,0,0,0,0,0,3.5268,3.5267,0,3.5255,3.5255,3.5255,3.5293,3.5294,3.5296,3.5297,3.5278,3.5276,3.5275,0,0,0,0,0,0,0,0,0,0,0,0,0,3.5319,3.5318,3.5268,3.5267,3.5267,3.5255,3.5255,3.5255,3.5293,3.5295,3.5296,3.5297,3.5279,3.5277,3.5275,0,0,0,0,0,0,0,0,0,0,0,0,0,3.53,3.5317,3.5268,3.5285,3.5286,3.5255,3.5255,3.5255,3.5293,3.5295,3.5296,3.5298,3.5279,3.5277,3.5274,3.5224,0,0,3.5267,3.5266,0,0,0,0,0,0,0,0,3.5301,3.5298,3.5283,3.5284,3.5285,3.5278,3.5266,3.5244,3.5292,3.529,3.5297,3.5299,3.5276,3.5274,3.5268,3.5223,3.5222,3.5267,3.5265,3.5264,3.5264,0,0,0,0,0,0,0,3.5303,3.5299,3.5263,3.5282,3.5284,3.5292,3.5291,3.5262,3.5273,3.529,3.5293,3.5292,3.5277,3.527,3.5268,3.5222,3.5267,3.5265,3.5263,3.5262,3.5136,3.5134,0,0,0,0,0,0,3.5302,3.53,3.5263,3.5262,3.5298,3.5289,3.5289,3.5278,3.5274,3.5275,3.529,3.5293,3.5273,3.527,3.5267,3.5207,3.5264,3.5262,3.5261,3.5138,3.5135,3.5133,0,0,0,0,0,0,3.5303,3.5299,3.5263,3.5282,3.5278,3.5287,3.5275,3.5277,3.527,3.5273,3.5275,3.5281,3.5274,3.527,3.5235,3.5207,3.5261,3.5259,3.514,3.5137,3.5134,3.5088,0,0,0,0,0,0,3.5305,3.5299,3.5281,3.5281,3.5277,3.5233,3.5273,3.5276,3.5267,3.5271,3.5265,3.5266,3.5276,3.5238,3.5233,3.5205,3.5257,3.5142,3.5138,3.5135,3.5092,3.5084,3.5077,0,0,0,0,0,3.5306,3.5267,3.528,3.5275,3.5255,3.5231,3.5229,3.5242,3.5264,3.5245,3.5248,3.5266,3.5212,3.5234,3.5228,3.5199,3.5144,3.514,3.5135,3.5095,3.5085,3.5077,0,0,0,0,0,0,3.526,3.5267,3.5281,3.5242,3.5236,3.5238,3.5214,3.5231,3.5217,3.5222,3.5237,3.5236,3.5197,3.5195,3.522,3.515,3.5181,3.5176,3.5153,3.5144,3.5136,3.5137,3.5255,0,0,0,0,0,3.5246,3.5228,3.5235,3.5198,3.5195,3.5205,3.5195,3.5207,3.5201,3.5198,3.5197,3.5189,3.517,3.5157,3.514,3.5093,3.5091,3.507,3.5062,3.5056,3.505,3.5024,3.5015,3.5119,3.5119,3.5119,0,0,3.5215,3.5217,3.5204,3.5189,3.5186,3.5166,3.5203,3.5179,3.5164,3.5193,3.516,3.516,3.5152,3.511,3.5092,3.5107,3.5021,3.505,3.5045,3.5043,3.5019,3.5009,3.5,3.5116,3.5116,3.5117,0,0,3.5149,3.5149,3.5119,3.5116,3.5112,3.5119,3.5112,3.5112,3.5113,3.5081,3.5103,3.5084,3.5051,3.5044,3.5036,3.4969,3.4985,3.4963,3.4922,3.4897,3.4889,3.4882,3.4856,3.4847,3.4957,3.4957,3.4957,0,3.511,3.5082,3.5101,3.5076,3.5069,3.5098,3.5066,3.5062,3.5051,3.5044,3.5062,3.5022,3.5019,3.4976,3.496,3.4953,3.4944,3.4962,3.4889,3.4882,3.4875,3.4851,3.4842,3.4954,3.4955,3.4955,3.4955,0,3.5035,3.5015,3.4991,3.4983,3.4972,3.4944,3.4957,3.4944,3.4957,3.4962,3.4928,3.4925,3.4908,3.4899,3.491,3.4857,3.4867,3.4887,3.4918,3.4862,3.484,3.4831,3.495,3.4951,3.4952,3.4953,0,0,3.4937,3.4941,3.4932,3.4928,3.4927,3.491,3.4884,3.4869,3.4857,3.4849,3.4826,3.4799,3.4817,3.4809,3.4819,3.4797,3.4743,3.482,3.482,3.4805,3.4684,3.4668,3.4657,3.4755,3.4753,3.4752,3.4684,0,3.4871,3.4827,3.4844,3.4798,3.4779,3.4807,3.4783,3.4779,3.4783,3.4766,3.477,3.475,3.4777,3.4772,3.4752,3.4754,3.4719,3.4759,3.4731,3.473,3.4731,3.4646,3.4629,3.4565,3.4676,3.4674,3.4673,0,3.4787,3.4779,3.4732,3.4734,3.4726,3.4705,3.4693,3.4678,3.4673,3.4677,3.4668,3.4684,3.4656,3.4689,3.465,3.4677,3.4667,3.4667,3.4664,3.4661,3.4697,3.4638,3.4545,3.4535,3.466,3.4661,3.4662,0,3.4719,3.4696,3.4665,3.4661,3.4663,3.4647,3.4647,3.4644,3.4635,3.4624,3.4617,3.4603,3.4594,3.4581,3.4592,3.4615,3.4551,3.4585,3.4552,3.4552,3.4536,3.4536,3.4438,3.4532,3.4532,3.4532,3.4532,0,3.4643,3.4613,3.4634,3.4615,3.4582,3.4601,3.4566,3.4569,3.4567,3.4547,3.457,3.455,3.4567,3.4548,3.4556,3.4522,3.4518,3.452,3.4522,3.4517,3.4517,3.4509,3.4513,3.4529,3.453,3.453,3.4531,0,3.456,3.4574,3.4542,3.4547,3.4548,3.4523,3.4527,3.4508,3.4515,3.449,3.4485,3.4495,3.4474,3.4485,3.4463,3.4468,3.4424,3.4433,3.4426,3.4428,3.4395,3.4397,3.4287,3.4273,3.4376,3.4375,3.4375,0,3.451,3.4488,3.4492,3.4481,3.448,3.4463,3.4454,3.4472,3.4461,3.4455,3.4436,3.4419,3.4405,3.4372,3.4375,3.4359,3.4366,3.4329,3.4364,3.4359,3.4364,3.4365,3.4362,3.4321,3.432,3.4319,3.4318,0,3.4419,3.4427,3.4414,3.4404,3.4393,3.4385,3.4379,3.4368,3.4386,3.4373,3.4354,3.4344,3.4323,3.4304,3.429,3.4288,3.4305,3.4308,3.4299,3.4293,3.429,3.429,3.4406,3.4309,3.431,3.4311,3.4311,3.4312,3.435,3.4331,3.4332,3.4317,3.4315,3.4309,3.4292,3.4297,3.4283,3.4268,3.428,3.4256,3.4252,3.4235,3.4231,3.4212,3.4227,3.4214,3.4211,3.4207,3.4203,3.4294,3.421,3.421,3.421,3.421,3.4211,0,3.4259,3.4261,3.4247,3.4239,3.4227,3.4248,3.4242,3.423,3.421,3.4206,3.4193,3.4171,3.4153,3.4157,3.414,3.4125,3.4132,3.412,3.412,3.4119,3.4191,3.42,3.4114,3.4114,3.4114,3.4114,3.4114,3.4114,3.421,3.418,3.4188,3.4157,3.4159,3.4139,3.4134,3.4128,3.4125,3.41,3.4086,3.4089,3.4088,3.4072,3.4056,3.4058,3.405,3.4034,3.4038,3.4105,3.4114,3.4123,3.4131,3.4033,3.4033,3.3968,3.3967,3.3967]}]]